Racecast

Katie Metz

Sacramento Speed Factory (CA) · - · STS · Compare head to head

Athlete rating
Races 44
Seasons 2 2013 — 2014
Speed rating — all races

Track & Field

TF speed rating

2014 TF

Sacramento Speed Factory (CA) · Grade -

Date Meet Event Result Place Rating Difficulty PR/SR Flags
2014-05-31 Pacific Association Championships (PAC) 400m 1:25.53 34th · 4th on team -0.024 ★PR SR
2014-05-31 Pacific Association Championships (PAC) 200m 35.89 47th · 5th on team -0.024 ★PR SR
2014-05-24 Central Valley Roadrunners 400m 1:29.54 19th · 3rd on team -0.026
2014-05-24 Central Valley Roadrunners 200m 36.68 29th · 3rd on team -0.026 PR SR
2014-05-18 3M Invitational 400m 1:25.73 16th · 4th on team -0.028 PR SR
2014-05-18 3M Invitational 200m 38.19 24th · 3rd on team -0.028 SR
2014-05-03 Hercules Running Rebels/Top Pacers Inv. 400m 1:27.05 2nd · 2nd on team -0.038 PR SR
2014-05-03 Hercules Running Rebels/Top Pacers Inv. 100m 17.52 5th · 5th on team -0.038 ★PR SR
2014-04-26 Revolution Express TC 400m 1:27.43 30th · 4th on team -0.024 PR SR
2014-04-26 Revolution Express TC 100m 18.49 41st · 4th on team -0.024
2014-04-26 Revolution Express TC 200m 39.59 39th · 4th on team -0.024 SR
2014-04-05 Sacramento Speed Showcase 200m 40.8 30th · 5th on team -0.033
2014-04-05 Sacramento Speed Showcase 100m 17.86 45th · 5th on team -0.033 PR SR
2014-04-05 Sacramento Speed Showcase 400m 1:31.12 38th · 5th on team -0.033
2014-03-22 RPM 100m 17.94 36th · 4th on team -0.012 PR SR
2014-03-22 RPM 400m 1:30.74 26th · 4th on team -0.012 PR SR
2014-03-01 RETC Practice Meet 200m 40.8 3rd · 1st on team -0.024 SR
2014-03-01 RETC Practice Meet 400m 1:34.8 12th · 5th on team -0.024 PR SR
2014-03-01 RETC Practice Meet 100m 18.4 5th · 1st on team -0.024 SR

2013 TF

Sacramento Speed Factory (CA) · Grade -

Date Meet Event Result Place Rating Difficulty PR/SR Flags
2013-06-08 Pacific Association Youth Championship (PAC) - 2-day meet 100m 18.18 16th · 1st on team -0.024 PR SR
2013-06-08 Pacific Association Youth Championship (PAC) - 2-day meet 200m 39.17 22nd · 1st on team -0.024
2013-05-25 Central Valley Roadrunners (2-day meet) 100m 18.29 9th · 1st on team -0.026 PR SR
2013-05-25 Central Valley Roadrunners (2-day meet) 200m 38.53 10th · 2nd on team -0.026 PR SR
2013-05-25 Central Valley Roadrunners (2-day meet) 200m 37.4 7th · 1st on team -0.026 PR SR
2013-05-25 Central Valley Roadrunners (2-day meet) 400m 1:36.42 5th · 1st on team -0.026
2013-05-25 Central Valley Roadrunners (2-day meet) 100m 18.8 12th · 2nd on team -0.026
2013-05-11 Classic Track Club Relays 400m 1:35.55 6th · 1st on team -0.011 PR SR
2013-05-11 Classic Track Club Relays 100m 18.62 14th · 1st on team -0.011
2013-05-11 Classic Track Club Relays 200m 42.54 16th · 1st on team -0.011
2013-05-04 Hercules / Running Rebels (2-day) 400m 1:37.46 21st · 1st on team -0.038 PR SR
2013-05-04 Hercules / Running Rebels (2-day) 100m 18.73 41st · 1st on team -0.038
2013-04-27 Revolution Express Track Club 100m 18.48 15th · 1st on team -0.024 PR SR
2013-04-27 Revolution Express Track Club 200m 42 11th · 1st on team -0.024 PR SR
2013-04-27 Revolution Express Track Club 400m 1:38.13 10th · 1st on team -0.024 PR SR
2013-04-20 Shor / Sheppard Classic 200m 42.39 25th · 1st on team -0.022 PR SR
2013-04-20 Shor / Sheppard Classic 100m 19.04 35th · 1st on team -0.022
2013-04-06 Sacramento Speed Showcase 100m 19.79 27th · 1st on team -0.031
2013-04-06 Sacramento Speed Showcase 200m 45.85 19th · 1st on team -0.031 PR SR
2013-04-06 Sacramento Speed Showcase 400m 1:40.72 17th · 1st on team -0.031 PR SR
2013-03-30 Stockton Saints 400m 1:44.48 28th · 1st on team -0.016 PR SR
2013-03-30 Stockton Saints 100m 18.79 27th · 1st on team -0.016 PR SR
2013-03-09 RETC home practice meet 100m 19.64 3rd · 1st on team -0.024 PR SR
2013-03-09 RETC home practice meet 200m 46.14 6th · 1st on team -0.024 PR SR
2013-03-09 RETC home practice meet 400m 1:45.14 3rd · 1st on team -0.024 PR SR